| time (UTC) | temp F | wind direction | speed MPH | gust MPH | rain 1hr in | rain 24hr in | rain mn in | humidity % | barometer mb |
| 20260508184017 | 59 | 338 | 5.0 | 12.0 | 0.00 | 0.00 | 0.00 | 34 | 1008.4 |
| 20260508183017 | 60 | 248 | 4.0 | 12.0 | 0.00 | 0.00 | 0.00 | 34 | 1008.5 |
| 20260508182017 | 59 | 225 | 5.0 | 14.0 | 0.00 | 0.00 | 0.00 | 36 | 1008.5 |
| 20260508181018 | 59 | 315 | 5.0 | 21.0 | 0.00 | 0.00 | 0.00 | 36 | 1008.5 |
| 20260508180017 | 60 | 315 | 5.0 | 12.0 | 0.00 | 0.00 | 0.00 | 35 | 1008.5 |
| 20260508175017 | 60 | 225 | 4.0 | 8.0 | 0.00 | 0.00 | 0.00 | 37 | 1008.5 |
| 20260508174017 | 59 | 293 | 4.0 | 10.0 | 0.00 | 0.00 | 0.00 | 37 | 1008.6 |
| 20260508173017 | 58 | 270 | 5.0 | 12.0 | 0.00 | 0.00 | 0.00 | 38 | 1008.6 |
| 20260508172017 | 57 | 248 | 4.0 | 10.0 | 0.00 | 0.00 | 0.00 | 39 | 1008.7 |
| 20260508171017 | 57 | 248 | 4.0 | 10.0 | 0.00 | 0.00 | 0.00 | 39 | 1008.6 |
| 20260508170017 | 57 | 225 | 4.0 | 11.0 | 0.00 | 0.00 | 0.00 | 39 | 1008.5 |
| 20260508165017 | 58 | 315 | 4.0 | 10.0 | 0.00 | 0.00 | 0.00 | 39 | 1008.6 |
| 20260508164017 | 58 | 248 | 5.0 | 12.0 | 0.00 | 0.00 | 0.00 | 37 | 1008.7 |
| 20260508163017 | 59 | 293 | 4.0 | 12.0 | 0.00 | 0.00 | 0.00 | 36 | 1008.6 |
| 20260508162017 | 61 | 248 | 4.0 | 9.0 | 0.00 | 0.00 | 0.00 | 37 | 1008.6 |
| 20260508161017 | 61 | 225 | 3.0 | 9.0 | 0.00 | 0.00 | 0.00 | 36 | 1008.6 |
| 20260508160017 | 59 | 0 | 3.0 | 8.0 | 0.00 | 0.00 | 0.00 | 39 | 1008.8 |
| 20260508155017 | 58 | 270 | 3.0 | 8.0 | 0.00 | 0.00 | 0.00 | 39 | 1009.0 |
| 20260508154017 | 58 | 270 | 5.0 | 10.0 | 0.00 | 0.00 | 0.00 | 37 | 1009.1 |
| 20260508153016 | 59 | 225 | 3.0 | 6.0 | 0.00 | 0.00 | 0.00 | 38 | 1009.1 |
| 20260508152017 | 58 | 270 | 3.0 | 9.0 | 0.00 | 0.00 | 0.00 | 38 | 1009.2 |
| 20260508151037 | 57 | 315 | 4.0 | 9.0 | 0.00 | 0.00 | 0.00 | 39 | 1009.2 |
| 20260508150017 | 56 | 315 | 4.0 | 11.0 | 0.00 | 0.00 | 0.00 | 39 | 1009.3 |
| 20260508145017 | 56 | 315 | 5.0 | 11.0 | 0.00 | 0.00 | 0.00 | 39 | 1009.3 |
| 20260508144017 | 55 | 315 | 4.0 | 9.0 | 0.00 | 0.00 | 0.00 | 40 | 1009.4 |
| 20260508143017 | 55 | 315 | 4.0 | 10.0 | 0.00 | 0.00 | 0.00 | 40 | 1009.5 |
| 20260508142016 | 55 | 315 | 3.0 | 10.0 | 0.00 | 0.00 | 0.00 | 40 | 1009.5 |
| 20260508141037 | 56 | 270 | 3.0 | 9.0 | 0.00 | 0.00 | 0.00 | 38 | 1009.6 |
| 20260508140017 | 55 | 225 | 3.0 | 10.0 | 0.00 | 0.00 | 0.00 | 40 | 1009.6 |
| 20260508135017 | 56 | 315 | 3.0 | 9.0 | 0.00 | 0.00 | 0.00 | 40 | 1009.7 |
| 20260508134016 | 56 | 23 | 3.0 | 12.0 | 0.00 | 0.00 | 0.00 | 40 | 1009.7 |
| 20260508133016 | 55 | 0 | 3.0 | 8.0 | 0.00 | 0.00 | 0.00 | 43 | 1009.7 |
| 20260508132016 | 54 | 338 | 3.0 | 7.0 | 0.00 | 0.00 | 0.00 | 45 | 1009.8 |
| 20260508131017 | 53 | 315 | 4.0 | 9.0 | 0.00 | 0.00 | 0.00 | 44 | 1009.9 |
| 20260508130016 | 53 | 315 | 3.0 | 8.0 | 0.00 | 0.00 | 0.00 | 45 | 1009.9 |
| 20260508125017 | 53 | 270 | 3.0 | 10.0 | 0.00 | 0.00 | 0.00 | 45 | 1009.9 |
| 20260508124036 | 52 | 270 | 3.0 | 8.0 | 0.00 | 0.00 | 0.00 | 46 | 1010.0 |
| 20260508123057 | 52 | 315 | 2.0 | 7.0 | 0.00 | 0.00 | 0.00 | 47 | 1009.9 |
| 20260508122036 | 51 | 315 | 3.0 | 7.0 | 0.00 | 0.00 | 0.00 | 49 | 1009.9 |
| 20260508121016 | 50 | 293 | 2.0 | 6.0 | 0.00 | 0.00 | 0.00 | 51 | 1010.0 |
| 20260508120016 | 49 | 293 | 2.0 | 6.0 | 0.00 | 0.00 | 0.00 | 53 | 1010.0 |
| 20260508115017 | 48 | 293 | 2.0 | 5.0 | 0.00 | 0.00 | 0.00 | 55 | 1009.9 |
| 20260508114016 | 47 | 315 | 2.0 | 6.0 | 0.00 | 0.00 | 0.00 | 59 | 1009.9 |
| 20260508113016 | 45 | 248 | 2.0 | 6.0 | 0.00 | 0.00 | 0.00 | 63 | 1009.9 |
| 20260508112016 | 44 | 248 | 2.0 | 6.0 | 0.00 | 0.00 | 0.00 | 65 | 1009.7 |
| 20260508111016 | 43 | 248 | 2.0 | 4.0 | 0.00 | 0.00 | 0.00 | 69 | 1009.7 |
| 20260508110036 | 41 | 248 | 1.0 | 3.0 | 0.00 | 0.00 | 0.00 | 72 | 1009.7 |
| 20260508105016 | 41 | 0.0 | 4.0 | 0.00 | 0.00 | 0.00 | 72 | 1009.6 | |
| 20260508104016 | 40 | 0.0 | 1.0 | 0.00 | 0.00 | 0.00 | 73 | 1009.5 | |
| 20260508103016 | 40 | 0.0 | 1.0 | 0.00 | 0.00 | 0.00 | 73 | 1009.4 | |
| 20260508102016 | 40 | 0.0 | 1.0 | 0.00 | 0.00 | 0.00 | 73 | 1009.3 | |
| 20260508101016 | 40 | 0.0 | 1.0 | 0.00 | 0.00 | 0.00 | 73 | 1009.0 | |
| 20260508100016 | 40 | 0.0 | 1.0 | 0.00 | 0.00 | 0.00 | 73 | 1009.0 | |
| 20260508095016 | 40 | 0.0 | 0.0 | 0.00 | 0.00 | 0.00 | 72 | 1009.0 | |
| 20260508094056 | 40 | 0.0 | 1.0 | 0.00 | 0.00 | 0.00 | 72 | 1008.9 | |
| 20260508093016 | 40 | 0.0 | 1.0 | 0.00 | 0.00 | 0.00 | 70 | 1009.0 | |
| 20260508092036 | 40 | 0.0 | 1.0 | 0.00 | 0.00 | 0.00 | 70 | 1008.9 | |
| 20260508091016 | 40 | 0.0 | 1.0 | 0.00 | 0.00 | 0.00 | 70 | 1008.8 | |
| 20260508090016 | 40 | 0.0 | 1.0 | 0.00 | 0.00 | 0.00 | 71 | 1008.7 | |
| 20260508085016 | 40 | 0.0 | 1.0 | 0.00 | 0.00 | 0.00 | 71 | 1008.7 | |
| 20260508084016 | 40 | 0.0 | 1.0 | 0.00 | 0.00 | 0.00 | 71 | 1008.8 | |
| 20260508083016 | 40 | 0.0 | 0.0 | 0.00 | 0.00 | 0.00 | 71 | 1008.7 | |
| 20260508082016 | 40 | 0.0 | 0.0 | 0.00 | 0.00 | 0.00 | 71 | 1008.5 | |
| 20260508081016 | 40 | 0.0 | 1.0 | 0.00 | 0.00 | 0.00 | 71 | 1008.4 | |
| 20260508080016 | 40 | 0.0 | 2.0 | 0.00 | 0.00 | 0.00 | 71 | 1008.2 | |
| 20260508075016 | 41 | 0.0 | 2.0 | 0.00 | 0.00 | 0.00 | 71 | 1008.0 | |
| 20260508074016 | 41 | 0.0 | 1.0 | 0.00 | 0.00 | 0.00 | 70 | 1007.9 | |
| 20260508073036 | 42 | 0.0 | 1.0 | 0.00 | 0.00 | 0.00 | 69 | 1007.6 | |
| 20260508072016 | 42 | 0.0 | 1.0 | 0.00 | 0.00 | 0.00 | 69 | 1007.5 | |
| 20260508071016 | 42 | 0.0 | 1.0 | 0.00 | 0.00 | 0.00 | 68 | 1007.4 | |
| 20260508070036 | 43 | 0.0 | 2.0 | 0.00 | 0.00 | 0.00 | 68 | 1007.4 | |
| 20260508065016 | 43 | 0.0 | 0.0 | 0.00 | 0.00 | 0.00 | 67 | 1007.5 | |
| 20260508064016 | 43 | 0.0 | 0.0 | 0.00 | 0.00 | 0.00 | 67 | 1007.5 | |
| 20260508063016 | 43 | 315 | 1.0 | 3.0 | 0.00 | 0.00 | 0.00 | 66 | 1007.5 |
| 20260508062056 | 44 | 0.0 | 1.0 | 0.00 | 0.00 | 0.00 | 65 | 1007.3 | |
| 20260508061016 | 44 | 0.0 | 0.0 | 0.00 | 0.00 | 0.00 | 64 | 1007.3 | |
| 20260508060016 | 44 | 0.0 | 1.0 | 0.00 | 0.00 | 0.00 | 63 | 1007.5 | |
| 20260508055016 | 45 | 0.0 | 1.0 | 0.00 | 0.00 | 0.00 | 62 | 1007.6 | |
| 20260508054016 | 45 | 0.0 | 1.0 | 0.00 | 0.00 | 0.00 | 61 | 1007.6 | |
| 20260508053016 | 46 | 0.0 | 1.0 | 0.00 | 0.00 | 0.00 | 60 | 1007.7 | |
| 20260508052036 | 46 | 0.0 | 1.0 | 0.00 | 0.00 | 0.00 | 59 | 1007.9 | |
| 20260508051016 | 46 | 0.0 | 1.0 | 0.00 | 0.00 | 0.00 | 58 | 1007.9 | |
| 20260508050016 | 47 | 0.0 | 1.0 | 0.00 | 0.00 | 0.00 | 58 | 1008.0 | |
| 20260508045016 | 47 | 0.0 | 1.0 | 0.00 | 0.00 | 0.00 | 57 | 1008.1 | |
| 20260508044036 | 48 | 315 | 1.0 | 2.0 | 0.00 | 0.00 | 0.00 | 56 | 1008.1 |
| 20260508043016 | 48 | 315 | 1.0 | 3.0 | 0.00 | 0.00 | 0.00 | 55 | 1008.2 |
| 20260508042036 | 48 | 315 | 1.0 | 3.0 | 0.00 | 0.00 | 0.00 | 55 | 1008.1 |
| 20260508041015 | 48 | 293 | 1.0 | 4.0 | 0.00 | 0.01 | 0.00 | 54 | 1008.1 |
| 20260508040016 | 49 | 315 | 1.0 | 3.0 | 0.00 | 0.01 | 0.01 | 53 | 1008.1 |
| 20260508035016 | 49 | 293 | 1.0 | 4.0 | 0.00 | 0.03 | 0.01 | 53 | 1008.1 |
| 20260508034016 | 49 | 293 | 1.0 | 3.0 | 0.00 | 0.03 | 0.01 | 52 | 1008.1 |
| 20260508033016 | 49 | 315 | 1.0 | 3.0 | 0.00 | 0.03 | 0.01 | 52 | 1008.1 |
| 20260508032016 | 49 | 293 | 1.0 | 4.0 | 0.00 | 0.03 | 0.01 | 51 | 1008.0 |
| 20260508031016 | 50 | 270 | 1.0 | 3.0 | 0.00 | 0.03 | 0.01 | 52 | 1007.9 |
| 20260508030016 | 50 | 293 | 1.0 | 3.0 | 0.00 | 0.03 | 0.01 | 52 | 1007.8 |
| 20260508025036 | 50 | 270 | 1.0 | 2.0 | 0.00 | 0.03 | 0.01 | 50 | 1007.9 |
| 20260508024016 | 50 | 270 | 1.0 | 3.0 | 0.00 | 0.03 | 0.01 | 50 | 1007.9 |
| 20260508023036 | 51 | 248 | 1.0 | 4.0 | 0.00 | 0.03 | 0.01 | 49 | 1007.8 |
| 20260508022016 | 51 | 248 | 1.0 | 5.0 | 0.00 | 0.03 | 0.01 | 49 | 1007.8 |
| 20260508021016 | 51 | 225 | 1.0 | 6.0 | 0.00 | 0.03 | 0.01 | 49 | 1007.9 |
| 20260508020016 | 52 | 225 | 1.0 | 3.0 | 0.00 | 0.03 | 0.01 | 48 | 1007.9 |
| 20260508015036 | 52 | 225 | 1.0 | 4.0 | 0.00 | 0.03 | 0.01 | 47 | 1007.8 |
| 20260508014016 | 52 | 248 | 1.0 | 5.0 | 0.00 | 0.03 | 0.01 | 47 | 1007.6 |
| 20260508013016 | 53 | 0.0 | 4.0 | 0.00 | 0.03 | 0.01 | 46 | 1007.5 | |
| 20260508012016 | 53 | 248 | 1.0 | 7.0 | 0.00 | 0.03 | 0.01 | 45 | 1007.3 |
| 20260508011016 | 53 | 248 | 1.0 | 5.0 | 0.00 | 0.03 | 0.01 | 45 | 1007.2 |
| 20260508010016 | 54 | 293 | 1.0 | 4.0 | 0.00 | 0.03 | 0.01 | 44 | 1007.0 |
| 20260508005016 | 54 | 270 | 1.0 | 5.0 | 0.00 | 0.03 | 0.01 | 43 | 1006.9 |
| 20260508004036 | 55 | 315 | 1.0 | 4.0 | 0.00 | 0.03 | 0.01 | 43 | 1006.7 |
| 20260508003036 | 55 | 338 | 1.0 | 5.0 | 0.00 | 0.03 | 0.01 | 42 | 1006.6 |
| 20260508002036 | 55 | 270 | 1.0 | 5.0 | 0.00 | 0.03 | 0.01 | 41 | 1006.4 |
| 20260508001015 | 56 | 315 | 2.0 | 7.0 | 0.00 | 0.03 | 0.01 | 40 | 1006.4 |
| 20260508000016 | 56 | 315 | 2.0 | 6.0 | 0.00 | 0.03 | 0.01 | 38 | 1006.4 |
| 20260507235016 | 57 | 315 | 2.0 | 7.0 | 0.00 | 0.03 | 0.01 | 37 | 1006.2 |
| 20260507234036 | 58 | 315 | 3.0 | 7.0 | 0.00 | 0.03 | 0.01 | 36 | 1006.1 |
| 20260507233015 | 58 | 315 | 3.0 | 8.0 | 0.00 | 0.03 | 0.01 | 36 | 1006.1 |
| 20260507232016 | 58 | 315 | 4.0 | 8.0 | 0.00 | 0.03 | 0.01 | 35 | 1005.9 |
| 20260507231016 | 59 | 315 | 3.0 | 9.0 | 0.00 | 0.04 | 0.01 | 35 | 1005.9 |
| 20260507230016 | 59 | 315 | 4.0 | 8.0 | 0.00 | 0.06 | 0.01 | 34 | 1005.9 |
| 20260507225015 | 59 | 315 | 3.0 | 8.0 | 0.00 | 0.06 | 0.01 | 34 | 1005.8 |
| 20260507224035 | 60 | 315 | 2.0 | 5.0 | 0.00 | 0.07 | 0.01 | 34 | 1005.7 |
| 20260507223015 | 60 | 315 | 4.0 | 8.0 | 0.00 | 0.07 | 0.01 | 34 | 1005.6 |
| 20260507222015 | 60 | 293 | 3.0 | 8.0 | 0.00 | 0.07 | 0.01 | 33 | 1005.6 |
| 20260507221015 | 61 | 315 | 3.0 | 10.0 | 0.00 | 0.08 | 0.01 | 33 | 1005.5 |
| 20260507220015 | 61 | 293 | 4.0 | 14.0 | 0.00 | 0.08 | 0.01 | 33 | 1005.4 |
| 20260507215015 | 61 | 270 | 4.0 | 10.0 | 0.00 | 0.08 | 0.01 | 32 | 1005.4 |
| 20260507214015 | 61 | 293 | 3.0 | 9.0 | 0.00 | 0.08 | 0.01 | 33 | 1005.3 |
| 20260507213015 | 61 | 315 | 4.0 | 10.0 | 0.00 | 0.08 | 0.01 | 33 | 1005.2 |
| 20260507212016 | 62 | 315 | 3.0 | 8.0 | 0.00 | 0.08 | 0.01 | 34 | 1005.2 |
| 20260507211015 | 62 | 315 | 4.0 | 10.0 | 0.00 | 0.08 | 0.01 | 32 | 1005.2 |
| 20260507210017 | 62 | 315 | 6.0 | 15.0 | 0.00 | 0.08 | 0.01 | 31 | 1005.2 |
| 20260507205017 | 62 | 315 | 5.0 | 13.0 | 0.00 | 0.09 | 0.01 | 30 | 1005.2 |
| 20260507204017 | 63 | 315 | 5.0 | 18.0 | 0.00 | 0.09 | 0.01 | 34 | 1005.1 |
| 20260507203017 | 63 | 315 | 5.0 | 18.0 | 0.00 | 0.10 | 0.01 | 32 | 1005.0 |
| 20260507202037 | 63 | 315 | 6.0 | 12.0 | 0.00 | 0.10 | 0.01 | 32 | 1005.0 |
| 20260507201017 | 63 | 315 | 5.0 | 14.0 | 0.00 | 0.10 | 0.01 | 33 | 1005.0 |
| 20260507200017 | 63 | 315 | 5.0 | 16.0 | 0.00 | 0.11 | 0.01 | 32 | 1005.0 |
| 20260507195017 | 63 | 293 | 5.0 | 15.0 | 0.00 | 0.11 | 0.01 | 32 | 1005.1 |
| 20260507194017 | 64 | 270 | 4.0 | 14.0 | 0.00 | 0.11 | 0.01 | 31 | 1005.3 |
| 20260507193017 | 64 | 338 | 5.0 | 15.0 | 0.00 | 0.12 | 0.01 | 32 | 1005.4 |
| 20260507192037 | 63 | 338 | 4.0 | 8.0 | 0.00 | 0.12 | 0.01 | 32 | 1005.4 |
| 20260507191017 | 63 | 338 | 5.0 | 13.0 | 0.00 | 0.13 | 0.01 | 33 | 1005.6 |
| 20260507190017 | 63 | 338 | 5.0 | 10.0 | 0.00 | 0.13 | 0.01 | 31 | 1005.6 |
| 20260507185017 | 64 | 293 | 3.0 | 9.0 | 0.00 | 0.14 | 0.01 | 31 | 1005.7 |